Weather History for KGEY - February, 2013

Change the Weather History Date:

Wednesday, February 6, 2013

  Actual Average Record
Temperature  
Mean Temperature 20 °F 20 °F  
Max Temperature 34 °F 32 °F 56 °F (2015)
Min Temperature 5 °F 8 °F -29 °F (2014)
Degree Days  
Heating Degree Days 45 45  
Month to date heating degree days 293 274  
Since 1 July heating degree days 4881 5088  
Cooling Degree Days 0 0  
Month to date cooling degree days 0 0  
Year to date cooling degree days 0 0  
Moisture  
Dew Point 13 °F    
Average Humidity 78    
Maximum Humidity 92    
Minimum Humidity 63    
Precipitation  
Precipitation 0.00 in 0.00 in 0.47 in (1958)
Month to date precipitation T 0.03  
Year to date precipitation 0.28 0.26  
Sea Level Pressure  
Sea Level Pressure 30.09 in    
Wind  
Wind Speed 2 mph (West)    
Max Wind Speed 10 mph    
Max Gust Speed 13 mph    
Visibility 9 miles    
Events      
T = Trace of Precipitation, MM = Missing Value Source: NWS Daily Summary

Daily Weather History Graph

Daily Weather History Graph

Search for Another Location

Airport or City:

Trip Planner

Search our weather history database for the weather conditions in past years. The results will help you decide how hot, cold, wet, or windy it might be!

Date:

Astronomy

Feb. 06, 2013 Rise Set
Actual Time 7:24 AM MST 5:28 PM MST
Civil Twilight 6:53 AM MST 5:59 PM MST
Nautical Twilight 6:19 AM MST 6:34 PM MST
Astronomical Twilight 5:45 AM MST 7:08 PM MST
Moon 4:15 AM MST (2/6) 1:46 PM MST (2/6)
Length of Visible Light 11h 05m
Length of Day
10h 04m
Waning Crescent, 16% of the Moon is Illuminated
Feb 6
Waning Crescent
Feb 10
New
Feb 17
First Quarter
Feb 25
Full
Mar 4
Last Quarter

Hourly Weather History & Observations

Time (MST) Temp. Windchill Dew Point Humidity Pressure Visibility Wind Dir Wind Speed Gust Speed Precip Events Conditions
12:53 AM 8.1 °F - 3.9 °F 83% 29.95 in 10.0 mi Calm Calm - N/A   Clear
2:53 AM 8.1 °F 1.4 °F 5.0 °F 87% 29.94 in 10.0 mi NW 3.5 mph - N/A   Clear
3:53 AM 9.0 °F - 6.1 °F 88% 29.94 in 10.0 mi Calm Calm - N/A   Clear
4:53 AM 9.0 °F - 6.1 °F 88% 29.97 in 9.0 mi Calm Calm - N/A   Clear
5:53 AM 8.1 °F - 5.0 °F 87% 30.00 in 10.0 mi Calm Calm - N/A   Clear
6:53 AM 8.1 °F - 3.9 °F 83% 30.03 in 10.0 mi Calm Calm - N/A   Clear
7:53 AM 8.1 °F - 5.0 °F 87% 30.07 in 8.0 mi Calm Calm - N/A   Clear
8:42 AM 8.6 °F - 5.0 °F 85% 29.90 in 7.0 mi Calm Calm - N/A   Scattered Clouds
8:53 AM 10.0 °F 0.4 °F 7.0 °F 87% 30.11 in 9.0 mi NW 5.8 mph - N/A   Partly Cloudy
9:53 AM 16.0 °F 8.8 °F 10.9 °F 81% 30.12 in 9.0 mi NW 4.6 mph - N/A   Clear
10:53 AM 23.0 °F - 16.0 °F 74% 30.11 in 10.0 mi Calm Calm - N/A   Clear
11:53 AM 26.1 °F - 18.0 °F 71% 30.10 in 10.0 mi Calm Calm - N/A   Partly Cloudy
12:53 PM 27.0 °F - 19.9 °F 75% 30.09 in 10.0 mi Calm Calm - N/A   Clear
1:53 PM 32.0 °F - 21.0 °F 64% 30.06 in 10.0 mi Calm Calm - N/A   Clear
2:53 PM 30.9 °F 24.3 °F 23.0 °F 72% 30.08 in 10.0 mi SSW 6.9 mph - N/A   Clear
3:53 PM 30.0 °F 24.1 °F 21.9 °F 72% 30.10 in 10.0 mi SSW 5.8 mph - N/A   Clear
4:53 PM 27.0 °F 19.5 °F 21.0 °F 78% 30.13 in 10.0 mi NNW 6.9 mph - N/A   Scattered Clouds
5:53 PM 27.0 °F 21.6 °F 21.0 °F 78% 30.15 in 10.0 mi East 4.6 mph - N/A   Scattered Clouds
6:53 PM 24.1 °F - 19.0 °F 81% 30.20 in 10.0 mi Calm Calm - N/A   Mostly Cloudy
7:53 PM 19.0 °F 10.0 °F 16.0 °F 88% 30.23 in 9.0 mi SW 6.9 mph - N/A   Clear
8:53 PM 18.0 °F 11.1 °F 16.0 °F 92% 30.23 in 8.0 mi SSE 4.6 mph - N/A   Clear
9:53 PM 16.0 °F 8.8 °F 12.9 °F 88% 30.25 in 6.0 mi NE 4.6 mph - N/A   Clear
10:53 PM 12.9 °F - 10.0 °F 88% 30.25 in 6.0 mi Calm Calm - N/A   Clear
11:53 PM 10.9 °F 2.9 °F 9.0 °F 92% 30.26 in 5.0 mi SE 4.6 mph - N/A   Clear